Voltar ao catálogo

WESTFORD NEEDLES

AtivoPO
NORAD 2359·DEBRIS·🇺🇸 United States

Lançado May 9, 1963 de Vandenberg Space Force Base

Loading…

Próximas Passagens (próximas 24 horas)

TLE

AtualizadoSource: Space-Track

Época: Sep 14, 2026, 05:51 UTC

1 02359U 63014J   26257.24386021  .00000757  00000-0  14849+0 0  9995
2 02359  86.8279 355.6471 1263079 344.5344  12.0048  8.71843496922500

Acompanhe WESTFORD NEEDLES em tempo real com AllMySat

Download on the App Store